EW1385 Weather Reports


time (UTC)temp
C
wind
direction
speed
KPH
gust
KPH
rain 1hr
cm
rain 24hr
cm
rain mn
cm
humidity
%
barometer
mb
20260504031004 9 159 1.6 9.7 0.05 0.05 0.05 86 1006.9
20260504030003 9 218 1.6 11.3 0.00 0.00 0.00 84 1007.1
20260504025003 8 188 0.0 6.4 0.00 0.00 0.00 85 1007.3
20260504024003 8 179 0.0 9.7 0.00 0.00 0.00 85 1007.6
20260504023003 8 160 0.0 4.8 0.00 0.00 0.00 85 1007.8
20260504022003 8 173 0.0 4.8 0.00 0.00 0.00 85 1007.8
20260504021003 8 119 0.0 1.6 0.00 0.00 0.00 85 1007.8
20260504020003 8 159 0.0 3.2 0.00 0.00 0.00 84 1007.7
20260504015003 8 155 0.0 8.0 0.00 0.00 0.00 84 1007.6
20260504014003 8 166 1.6 6.4 0.00 0.00 0.00 83 1007.6
20260504013024 8 152 0.0 3.2 0.00 0.00 0.00 83 1007.6
20260504012024 8 258 0.0 3.2 0.00 0.00 0.00 83 1007.5
20260504011003 8 260 0.0 4.8 0.00 0.00 0.00 83 1007.5
20260504010008 8 277 1.6 8.0 0.00 0.00 0.00 83 1007.5
20260504005008 8 270 1.6 6.4 0.00 0.00 0.00 83 1007.5
20260504004008 8 247 1.6 4.8 0.00 0.00 0.00 82 1007.6
20260504003008 8 224 1.6 6.4 0.00 0.00 0.00 81 1007.6
20260504002008 8 266 4.8 17.7 0.00 0.00 0.00 79 1007.6
20260504001029 9 259 3.2 14.5 0.00 0.00 0.00 78 1007.5
20260504000008 9 237 3.2 9.7 0.00 0.00 0.00 75 1007.5
20260503235008 10 212 3.2 9.7 0.00 0.00 0.00 73 1007.6
20260503234008 10 213 3.2 11.3 0.00 0.00 0.00 72 1007.5
20260503233008 10 203 4.8 16.1 0.00 0.00 0.00 66 1007.5
20260503232008 11 251 4.8 22.5 0.00 0.00 0.00 64 1007.4
20260503231008 11 245 6.4 19.3 0.00 0.00 0.00 62 1007.3
20260503230008 11 175 0.0 6.4 0.00 0.00 0.00 57 1007.2
20260503225029 11 162 0.0 3.2 0.00 0.00 0.00 50 1007.2
20260503224008 11 154 1.6 4.8 0.00 0.00 0.00 49 1007.3
20260503223008 11 168 1.6 8.0 0.00 0.00 0.00 47 1007.4
20260503222008 11 174 1.6 3.2 0.00 0.00 0.00 47 1007.6
20260503221008 11 164 4.8 11.3 0.00 0.00 0.00 46 1007.6
20260503220009 12 162 3.2 11.3 0.00 0.00 0.00 46 1007.7
20260503215008 12 166 3.2 12.9 0.00 0.00 0.00 45 1007.8
20260503214008 12 171 1.6 6.4 0.00 0.00 0.00 46 1007.8
20260503213008 12 260 4.8 20.9 0.00 0.00 0.00 46 1007.7
20260503212008 12 241 6.4 19.3 0.00 0.00 0.00 45 1007.7
20260503211008 12 239 3.2 22.5 0.00 0.00 0.00 43 1007.6
20260503210008 13 202 4.8 14.5 0.00 0.00 0.00 41 1007.5
20260503205008 13 194 6.4 16.1 0.00 0.00 0.00 38 1007.7
20260503204008 14 188 4.8 14.5 0.00 0.00 0.00 37 1007.7
20260503202003 14 227 6.4 22.5 0.00 0.00 0.00 39 1008.0
20260503201003 14 247 6.4 14.5 0.00 0.00 0.00 42 1008.2
20260503200003 13 245 6.4 17.7 0.00 0.00 0.00 40 1008.4
20260503195003 13 266 8.0 33.8 0.00 0.00 0.00 41 1008.4
20260503194003 13 261 6.4 19.3 0.00 0.00 0.00 42 1008.6
20260503193003 13 268 6.4 17.7 0.00 0.00 0.00 43 1008.7
20260503192003 13 241 6.4 17.7 0.00 0.00 0.00 43 1008.9
20260503191003 14 181 4.8 14.5 0.00 0.00 0.00 40 1008.9
20260503190024 13 234 4.8 14.5 0.00 0.00 0.00 43 1009.1
20260503185003 12 264 6.4 17.7 0.00 0.00 0.00 43 1009.3
20260503184003 12 235 6.4 22.5 0.00 0.00 0.00 40 1009.4
20260503183003 13 189 4.8 19.3 0.00 0.00 0.00 40 1009.3
20260503182003 12 254 6.4 20.9 0.00 0.00 0.00 41 1009.6
20260503181003 13 214 4.8 22.5 0.00 0.00 0.00 40 1009.6
20260503180024 12 221 6.4 17.7 0.00 0.00 0.00 41 1009.6
20260503175024 12 259 4.8 17.7 0.00 0.00 0.00 40 1009.7
20260503174003 12 277 8.0 19.3 0.00 0.00 0.00 39 1009.8
20260503173003 13 264 3.2 9.7 0.00 0.00 0.00 42 1009.9
20260503172003 12 286 4.8 16.1 0.00 0.00 0.00 38 1010.1
20260503171003 12 271 4.8 19.3 0.00 0.00 0.00 37 1010.1
20260503151003 10 269 4.8 12.9 0.00 0.00 0.00 36 1011.5
20260503131003 6 273 1.6 8.0 0.00 0.00 0.00 46 1012.7
20260503081003 1 287 0.0 1.6 0.00 0.00 0.00 74 1012.9
20260503072024 1 275 3.2 8.0 0.00 0.00 0.00 71 1013.0
20260503071003 2 276 3.2 8.0 0.00 0.00 0.00 70 1012.9
20260503055024 2 276 3.2 9.7 0.00 0.00 0.00 69 1013.3
20260503054003 2 274 3.2 8.0 0.00 0.00 0.00 68 1013.4
20260503053003 3 275 1.6 6.4 0.00 0.00 0.00 68 1013.4
20260503052024 3 269 3.2 8.0 0.00 0.00 0.00 68 1013.5
20260503051003 3 276 3.2 9.7 0.00 0.00 0.00 68 1013.5
20260503050004 3 267 1.6 11.3 0.00 0.00 0.00 67 1013.5